Location: Seagrave Observatory
(41.8500°N, 71.5833°W)
Time: 01:12:43
(UTC-04:00)

Daily predictions for brighter satellites

Satellite Brightness Start Highest point End
(mag) Time Altitude Azimuth Time Altitude Azimuth Time Altitude Azimuth
ALOS 2 2.9 00:07:08 62° NNE 00:07:08 62° NNE 00:11:01 10° N
Cosmos 1238 Rocket 4.4 00:11:33 30° ENE 00:11:33 30° ENE 00:14:15 10° NNE
DELTA 2 DEB (DPAF) 4.3 00:11:50 70° N 00:11:50 70° N 00:15:48 10° NNW
Cosmos 1626 Rocket 4.2 00:17:29 50° WNW 00:17:29 50° WNW 00:21:32 10° N
Terra 4.3 00:17:13 11° W 00:17:53 11° W 00:19:20 10° WNW
Cosmos 1812 Rocket 4.0 00:15:13 10° N 00:18:50 59° NNW 00:18:50 59° NNW
Cosmos 1602 Rocket 4.2 00:20:37 52° NW 00:20:37 52° NW 00:24:32 10° N
Cosmos 1758 Rocket 4.2 00:33:15 50° NE 00:33:15 50° NE 00:36:55 10° NNE
Mayak -0.5 00:33:24 10° N 00:37:00 48° NW 00:37:00 48° NW
ISS -1.2 00:35:23 10° NW 00:36:54 21° NNW 00:36:54 21° NNW
H-2A R/B 2.7 00:43:33 50° NW 00:43:33 50° NW 00:46:53 10° NNW
Cosmos 2219 Rocket 4.5 00:41:56 10° W 00:43:13 11° W 00:43:21 11° W
Cosmos 1818 4.3 00:42:14 38° W 00:43:41 47° NW 00:48:58 10° NNE
Cosmos 1400 Rocket 3.7 00:48:17 50° N 00:48:17 50° N 00:51:28 10° N
Cosmos 1371 Rocket 3.9 00:46:57 10° NNW 00:52:13 85° ENE 00:52:13 85° ENE
Cosmos 2292 Rocket 4.4 00:49:58 10° N 00:54:06 48° E 00:54:06 48° E
BREEZE-M DEB (TANK) 4.3 00:25:39 10° WNW 00:54:27 69° SW 00:56:41 49° SSE
ADEOS Rocket 2.9 00:51:04 10° N 00:56:29 60° WNW 00:57:08 56° WSW
COSMOS 2455 4.3 00:54:03 18° W 00:57:37 31° NW 01:02:56 10° NNE
Cosmos 1553 Rocket 4.0 01:01:47 61° SE 01:02:38 69° E 01:08:45 10° NNE
Meteor 1-24 Rocket 3.6 01:05:57 76° SSE 01:06:25 85° E 01:12:22 10° N
Cosmos 2263 Rocket 3.0 01:08:12 36° ESE 01:08:17 36° ESE 01:13:27 10° NE
Cosmos 2056 Rocket 3.3 01:03:52 10° NNW 01:08:50 83° NW 01:08:50 83° NW
Cosmos 1825 Rocket 4.5 01:11:30 41° WNW 01:11:30 41° WNW 01:15:16 10° N
Cosmos 1943 4.1 01:05:37 10° NNW 01:11:03 43° ENE 01:13:14 30° ESE
NOSS 3-1 (C) 3.2 01:12:01 67° SE 01:12:17 68° ESE 01:18:33 10° NE
SL-16 R/B 3.1 01:08:10 10° NW 01:12:47 35° W 01:12:47 35° W
Meteor 2-5 Rocket 4.2 01:16:42 48° WSW 01:17:31 52° WNW 01:23:17 10° N
Cosmos 1624 Rocket 4.1 01:13:33 10° NNW 01:18:40 67° W 01:18:40 67° W
Cosmos 1726 3.6 01:15:57 10° N 01:18:34 34° NE 01:18:34 34° NE
Cosmos 1908 4.3 01:16:18 10° N 01:19:04 44° NNE 01:19:04 44° NNE
Cosmos 1315 Rocket 3.7 01:23:59 44° NNW 01:23:59 44° NNW 01:26:56 10° N
PSLV R/B 3.9 01:23:56 10° NNE 01:27:54 61° ENE 01:27:54 61° ENE
Cosmos 2297 Rocket 4.5 01:26:25 10° W 01:29:58 17° NW 01:33:31 10° N
USA 229 DEB 4.1 01:29:54 37° WSW 01:32:29 57° NW 01:39:18 10° NNE
USA 229 4.1 01:30:01 37° WSW 01:32:35 58° NW 01:39:25 10° NNE
NOSS 3-1 (A) 3.2 01:33:04 63° SSE 01:33:36 67° ESE 01:39:54 10° NE
CZ-4B R/B 3.2 01:37:27 29° NE 01:37:27 29° NE 01:40:01 10° N
Cosmos 1346 Rocket 3.7 01:35:11 10° NNW 01:37:54 43° NNW 01:37:54 43° NNW
Cosmos 1689 Rocket 4.4 01:42:39 24° NE 01:42:39 24° NE 01:44:40 10° NNE
Cosmos 1603 3.7 01:39:36 10° NNW 01:45:11 61° WSW 01:45:21 61° WSW
Cosmos 1842 Rocket 3.6 01:44:33 10° N 01:48:37 76° N 01:48:37 76° N
MOS 1 Rocket 3.6 01:45:37 10° N 01:51:04 71° WNW 01:51:46 62° WSW
Cosmos 1745 Rocket 4.1 01:45:06 10° NNW 01:51:23 65° W 01:52:36 54° SW
Cosmos 2315 Rocket 4.3 01:49:47 44° SE 01:51:32 60° E 01:57:39 10° NNE
SL-16 R/B 3.9 01:46:58 12° SE 01:51:59 35° ENE 01:57:30 10° N
SL-24 R/B 4.4 01:51:35 10° N 01:54:32 49° NNW 01:54:32 49° NNW
H-2A R/B 4.3 01:54:49 10° NE 01:58:17 22° E 01:59:06 21° ESE
Cosmos 1626 3.5 02:01:40 31° E 02:01:40 31° E 02:04:52 10° NNE
CZ-2D R/B 3.5 02:02:02 10° NE 02:06:33 29° E 02:08:23 24° SE
SL-14 R/B 3.4 02:07:04 67° NNE 02:07:04 67° NNE 02:10:28 10° N
Landsat 5 3.4 02:08:01 74° NW 02:08:01 74° NW 02:11:44 10° NNW
Cosmos 1674 4.3 02:09:44 24° NW 02:09:44 24° NW 02:12:11 10° NNW
Cosmos 1340 3.3 02:18:00 10° NNW 02:20:58 47° NW 02:20:58 47° NW
Resurs 1-4 Rocket 3.0 02:16:47 10° NNE 02:21:49 41° E 02:23:49 30° SE
Cosmos 1328 4.1 02:21:49 57° ESE 02:22:03 58° E 02:25:59 10° NNE
Cosmos 1607 4.3 02:15:49 10° NNW 02:22:13 64° NE 02:28:27 10° SE
Genesis I 3.3 02:22:52 71° NW 02:22:52 71° NW 02:26:51 10° NNE
Meteor 1-21 Rocket 4.5 02:24:51 46° SW 02:26:23 60° WNW 02:32:15 10° N
NOSS 2-3 (D) 4.0 02:27:03 50° SSE 02:27:44 55° ESE 02:32:48 10° NE
DELTA 2 R/B (1) 3.5 02:27:09 51° SW 02:28:01 57° SSW 02:33:30 10° ESE
Cosmos 1709 Rocket 4.0 02:21:51 10° NNW 02:28:10 67° W 02:30:15 43° SSW
Okean 3 Rocket 3.6 02:28:14 59° SSE 02:28:57 73° E 02:33:25 10° NNE
BREEZE-M DEB (TANK) 2.9 02:31:15 69° SW 02:31:40 83° SSE 02:35:13 10° ENE
IRS-P3 4.3 02:27:09 10° NNE 02:32:28 66° ESE 02:34:18 41° S
Cosmos 1844 Rocket 3.6 02:30:40 27° SSE 02:32:54 39° ESE 02:38:07 10° NE
Cosmos 1076 Rocket 3.4 02:34:27 68° SSW 02:34:59 85° W 02:39:21 10° N
NPP 3.6 02:32:46 10° NNE 02:38:11 83° ESE 02:40:03 43° S
Cosmos 2285 Rocket 4.2 02:39:25 37° SW 02:41:50 60° WNW 02:48:07 10° NNE
Cosmos 1269 Rocket 4.0 02:42:04 47° SW 02:43:38 78° WNW 02:48:58 10° NNE
Cosmos 2278 Rocket 4.5 02:43:00 10° SE 02:46:12 16° E 02:49:24 10° ENE
GEOS 3 Rocket 3.9 02:41:46 10° NNE 02:47:02 61° NW 02:49:09 35° WSW
Aureole 1 Rocket 4.1 02:48:34 20° NW 02:48:34 20° NW 02:50:32 10° NNW
NOSS 2-3 (E) 3.7 02:47:04 50° SSW 02:48:18 88° SE 02:53:38 10° NE
Cosmos 2221 3.2 02:46:08 10° NNW 02:50:13 38° W 02:50:20 38° W
AQUA 3.7 02:45:50 10° NNE 02:50:37 88° ESE 02:52:10 44° SSW
Cosmos 2263 Rocket 3.3 02:49:53 25° W 02:52:12 34° WNW 02:57:22 10° N
Cosmos 1943 4.2 02:50:06 10° NW 02:54:51 28° WSW 02:55:00 28° WSW
ATLAS 2AS CENTAUR R/B 4.0 02:51:51 19° SSE 02:56:49 39° ESE 03:04:08 10° NE
Cosmos 2251 Rocket 4.5 02:54:47 22° SSE 02:57:45 41° ESE 03:02:47 10° NNE
UNK 3.6 02:56:15 38° S 02:58:00 76° WSW 03:02:41 10° NNW
Cosmos 1703 3.2 02:58:16 51° S 02:59:14 84° E 03:03:12 10° N
Cosmos 1300 4.3 02:58:06 10° NW 03:00:28 21° WNW 03:00:28 21° WNW
PSLV R/B 4.1 03:03:17 25° SSE 03:05:38 75° ENE 03:09:50 10° N
Meteor 1-11 4.2 03:06:25 32° SSW 03:09:08 79° W 03:14:49 10° N
CZ-4B R/B 3.8 03:10:53 13° WNW 03:10:53 13° WNW 03:11:36 10° WNW
Cosmos 1455 2.0 03:07:15 10° N 03:11:01 87° W 03:12:20 39° S
Orbus 7S? 4.3 03:11:15 21° SE 03:11:21 21° SE 03:13:38 10° ENE
UNKNOWN OBJECT B 4.2 03:09:07 10° NNE 03:12:29 31° E 03:14:53 16° SSE
SeaSat 1 2.4 03:08:09 10° SSE 03:13:05 88° ENE 03:18:03 10° NNW
SL-08 R/B 3.7 03:16:26 32° SSW 03:18:22 48° W 03:23:08 10° NNW
Cosmos 1328 Rocket 3.5 03:15:02 10° N 03:19:22 83° E 03:22:16 20° S
COSMOS 2406 3.7 03:14:57 10° NNW 03:20:43 64° ENE 03:26:26 10° SE
Cosmos 1500 Rocket 4.3 03:19:13 17° SSE 03:22:27 49° E 03:26:45 10° NNE
Cosmos 921 Rocket 3.6 03:19:21 10° NW 03:23:19 37° W 03:24:18 32° SW
Spot 4 Rocket 4.0 03:18:49 10° NNE 03:23:59 88° WNW 03:27:07 24° SSW
SAR-Lupe-2 3.8 03:23:20 17° SSE 03:26:01 70° ENE 03:29:35 10° N
NOSS 2-3 (C) 4.5 03:24:16 25° WSW 03:26:43 47° NW 03:31:59 10° NNE
Cosmos 1766 Rocket 4.0 03:25:30 31° SW 03:27:02 44° WNW 03:31:14 10° N
USA 267 3.3 03:21:33 10° NE 03:28:07 78° SE 03:32:34 22° SW
Cosmos 1869 4.2 03:26:24 10° N 03:30:13 46° E 03:34:01 10° SSE
Meteor 2-21 Rocket 4.5 03:24:50 10° N 03:30:59 85° E 03:37:03 10° S
H-2A R/B 3.5 03:29:49 10° N 03:33:51 34° WNW 03:35:42 24° WSW
ATLAS 3B R/B 4.1 03:28:37 10° NNW 03:34:49 39° NE 03:40:53 10° ESE
SL-16 R/B 3.0 03:32:04 22° SSW 03:35:29 39° W 03:41:17 10° NNW
Cosmos 1626 4.1 03:36:17 15° W 03:36:56 16° WNW 03:39:15 10° NNW
Cosmos 2228 Rocket 3.1 03:32:42 10° N 03:37:19 86° E 03:41:50 10° S
Helios 1A Rocket 3.1 03:34:18 10° NNE 03:38:23 71° ESE 03:41:15 19° S
Cosmos 2058 3.1 03:38:07 26° SSW 03:40:14 55° W 03:44:23 10° N
Cosmos 1110 Rocket 4.5 03:35:30 10° NW 03:40:18 39° WSW 03:43:26 19° SSW
OAO 2 Rocket 3.8 03:38:13 24° SW 03:40:29 37° S 03:45:03 10° ESE
Cosmos 1809 Rocket 4.5 03:34:30 10° NNW 03:40:30 60° W 03:45:45 14° S
IRS-1D 4.0 03:35:54 10° N 03:41:01 48° WNW 03:44:14 21° SW
MOZ.5/SAFIR/RUBIN 5/SL-8 4.2 03:39:02 22° SSW 03:41:45 44° W 03:46:19 10° NNW
ARIANE 5 R/B 2.6 03:38:11 10° N 03:43:11 59° WNW 03:46:30 21° SW
Cosmos 1515 Rocket 3.4 03:39:19 10° N 03:43:39 78° W 03:47:41 12° S
Timation 1 Rocket 4.4 03:40:32 21° SW 03:44:35 73° WNW 03:50:34 10° NNE
CZ-2D R/B 2.9 03:41:57 10° N 03:46:38 35° WNW 03:49:43 19° WSW
Cosmos 1151 Rocket 3.0 03:47:13 10° NNW 03:51:33 64° W 03:55:32 12° S
GP-B 3.5 03:49:17 10° N 03:53:43 64° E 03:58:07 10° S
Cosmos 2341 Rocket 4.0 03:50:54 10° N 03:57:11 88° W 04:03:29 10° S
CZ-2D R/B 3.6 03:53:21 10° N 03:57:47 71° WNW 04:01:24 15° SSW
SL-8 Rocket 4.5 03:52:54 10° N 03:59:03 64° E 04:05:12 10° SSE
Meteor 2-10 Rocket 3.4 03:55:11 10° NNW 04:00:15 82° W 04:05:14 10° S
Resurs 1-4 Rocket 3.4 03:57:04 10° N 04:01:24 26° WNW 04:04:54 14° WSW
USA 234 4.2 03:55:18 10° ESE 04:01:33 51° NNE 04:07:50 10° NW
Okean O Rocket 4.5 04:02:05 10° ENE 04:04:02 13° E 04:05:59 10° ESE
Cosmos 405 Rocket 2.7 04:02:20 10° NNW 04:06:08 62° W 04:09:50 10° S
Cosmos 2181 Rocket 4.1 04:05:14 10° S 04:11:41 84° W 04:18:10 10° N
Lacrosse 5 3.8 04:10:33 10° S 04:14:22 22° ESE 04:18:11 10° ENE
In-Cosmos 22 Rocket 4.4 04:10:47 10° S 04:16:10 68° E 04:21:29 10° NNE
Cosmos 1844 Rocket 3.7 04:12:20 12° WSW 04:16:49 32° NW 04:21:54 10° N
USA 238 DEB 3.9 04:11:00 10° NW 04:18:10 85° NE 04:25:25 10° SE
USA 238 3.9 04:11:06 10° NW 04:18:16 85° NE 04:25:32 10° SE
Cosmos 2151 4.3 04:16:25 13° SW 04:19:20 25° WNW 04:22:57 10° NNW
ADEOS II 2.1 04:14:24 10° N 04:19:41 75° WNW 04:24:54 10° SSW
Cosmos 1441 Rocket 4.3 04:24:41 10° NNW 04:28:05 27° W 04:31:24 10° SSW
Cosmos 2278 Rocket 2.3 04:23:55 10° SSW 04:29:34 73° WNW 04:35:16 10° NNE
Cosmos 1833 Rocket 3.4 04:29:05 10° NNW 04:34:40 61° ENE 04:40:12 10° SE
CZ-4B R/B 3.8 04:31:48 10° NNE 04:35:15 43° E 04:38:45 10° S
APEX 2.3 04:35:05 10° NNW 04:37:46 60° WSW 04:40:34 10° SSE
Cosmos 1805 Rocket 3.6 04:34:38 10° SSW 04:38:56 67° W 04:43:15 10° N
Cosmos 1892 2.8 04:35:43 10° S 04:39:34 80° E 04:43:25 10° N
Cosmos 2297 4.4 04:35:10 10° S 04:40:37 54° ESE 04:46:08 10° NNE
OE (NEXTSAT) 4.4 04:37:32 10° WSW 04:41:02 79° NNW 04:44:34 10° ENE
ATLAS 2AS CENTAUR R/B 3.5 04:39:55 10° SW 04:47:37 56° NW 04:55:38 10° NNE
NOSS 3-2 (A) 4.2 04:40:56 10° NW 04:48:32 85° NE 04:56:51 10° SE
